| time (UTC) | temp F | wind direction | speed knots | gust knots | rain 1hr in | rain 24hr in | rain mn in | humidity % | barometer mb |
| 20260507221252 | 51 | 147 | 0.9 | 2.6 | 0.00 | 0.00 | 0.00 | 1 | 1016.1 |
| 20260507220224 | 51 | 147 | 0.9 | 2.6 | 0.00 | 0.00 | 0.00 | 1 | 1016.1 |
| 20260507214107 | 52 | 147 | 0.9 | 2.6 | 0.00 | 0.00 | 0.00 | 1 | 1016.2 |
| 20260507210758 | 52 | 149 | 0.0 | 0.0 | 0.00 | 0.00 | 0.00 | 1 | 1016.0 |
| 20260507205806 | 52 | 150 | 0.9 | 2.6 | 0.00 | 0.00 | 0.00 | 1 | 1016.0 |
| 20260507203643 | 52 | 155 | 1.7 | 4.3 | 0.00 | 0.00 | 0.00 | 1 | 1015.8 |
| 20260507202612 | 52 | 155 | 1.7 | 5.2 | 0.00 | 0.00 | 0.00 | 1 | 1015.8 |
| 20260507201551 | 52 | 138 | 2.6 | 6.1 | 0.00 | 0.00 | 0.00 | 1 | 1015.7 |
| 20260507195521 | 53 | 137 | 1.7 | 5.2 | 0.00 | 0.00 | 0.00 | 1 | 1015.6 |
| 20260507194504 | 53 | 146 | 1.7 | 5.2 | 0.00 | 0.00 | 0.00 | 1 | 1015.6 |
| 20260507193521 | 53 | 132 | 1.7 | 3.5 | 0.00 | 0.00 | 0.00 | 1 | 1015.4 |
| 20260507192542 | 53 | 129 | 1.7 | 5.2 | 0.00 | 0.00 | 0.00 | 1 | 1015.4 |
| 20260507191521 | 53 | 132 | 2.6 | 6.1 | 0.00 | 0.00 | 0.00 | 1 | 1015.4 |
| 20260507190455 | 53 | 130 | 2.6 | 6.1 | 0.00 | 0.00 | 0.00 | 1 | 1015.4 |
| 20260507185438 | 53 | 128 | 1.7 | 6.1 | 0.00 | 0.00 | 0.00 | 1 | 1015.4 |
| 20260507183225 | 54 | 125 | 1.7 | 7.0 | 0.00 | 0.00 | 0.00 | 1 | 1015.3 |
| 20260507181100 | 54 | 124 | 1.7 | 6.1 | 0.00 | 0.00 | 0.00 | 1 | 1015.3 |
| 20260507180123 | 54 | 132 | 1.7 | 6.1 | 0.00 | 0.00 | 0.00 | 1 | 1015.2 |
| 20260507175055 | 54 | 126 | 1.7 | 6.1 | 0.00 | 0.00 | 0.00 | 1 | 1015.2 |
| 20260507174047 | 54 | 121 | 2.6 | 6.1 | 0.00 | 0.00 | 0.00 | 1 | 1015.2 |
| 20260507173037 | 54 | 116 | 2.6 | 6.1 | 0.00 | 0.00 | 0.00 | 1 | 1015.2 |
| 20260507172036 | 55 | 119 | 1.7 | 5.2 | 0.00 | 0.00 | 0.00 | 1 | 1015.2 |
| 20260507171031 | 55 | 119 | 1.7 | 5.2 | 0.00 | 0.00 | 0.00 | 1 | 1015.2 |
| 20260507164903 | 55 | 114 | 1.7 | 7.0 | 0.00 | 0.00 | 0.00 | 1 | 1015.3 |
| 20260507163845 | 55 | 111 | 1.7 | 7.0 | 0.00 | 0.00 | 0.00 | 1 | 1015.4 |
| 20260507161704 | 55 | 124 | 3.5 | 7.8 | 0.00 | 0.00 | 0.00 | 1 | 1015.4 |
| 20260507160716 | 55 | 110 | 3.5 | 7.8 | 0.00 | 0.00 | 0.00 | 1 | 1015.4 |
| 20260507155720 | 55 | 136 | 3.5 | 7.0 | 0.00 | 0.00 | 0.00 | 1 | 1015.4 |
| 20260507153523 | 56 | 113 | 2.6 | 7.8 | 0.00 | 0.00 | 0.00 | 1 | 1015.4 |
| 20260507152537 | 56 | 48 | 3.5 | 8.7 | 0.00 | 0.00 | 0.00 | 1 | 1015.4 |
| 20260507150451 | 56 | 64 | 3.5 | 8.7 | 0.00 | 0.00 | 0.00 | 1 | 1015.3 |
| 20260507144325 | 56 | 89 | 4.3 | 8.7 | 0.00 | 0.00 | 0.00 | 1 | 1015.4 |
| 20260507143323 | 56 | 67 | 4.3 | 8.7 | 0.00 | 0.00 | 0.00 | 1 | 1015.4 |
| 20260507142307 | 56 | 96 | 2.6 | 7.8 | 0.00 | 0.00 | 0.00 | 1 | 1015.5 |
| 20260507141240 | 56 | 69 | 3.5 | 10.4 | 0.00 | 0.00 | 0.00 | 1 | 1015.6 |
| 20260507140259 | 56 | 78 | 4.3 | 10.4 | 0.00 | 0.00 | 0.00 | 1 | 1015.6 |
| 20260507135232 | 56 | 72 | 3.5 | 8.7 | 0.00 | 0.00 | 0.00 | 4 | 1015.6 |
| 20260507134248 | 56 | 86 | 3.5 | 9.6 | 0.00 | 0.00 | 0.00 | 8 | 1015.6 |
| 20260507133306 | 57 | 91 | 3.5 | 9.6 | 0.00 | 0.00 | 0.00 | 11 | 1015.5 |
| 20260507132311 | 57 | 77 | 3.5 | 8.7 | 0.00 | 0.00 | 0.00 | 19 | 1015.6 |
| 20260507131300 | 57 | 90 | 3.5 | 10.4 | 0.00 | 0.00 | 0.00 | 22 | 1015.6 |
| 20260507130227 | 57 | 74 | 4.3 | 10.4 | 0.00 | 0.00 | 0.00 | 23 | 1015.6 |
| 20260507125211 | 58 | 73 | 3.5 | 9.6 | 0.00 | 0.00 | 0.00 | 21 | 1015.6 |
| 20260507124202 | 57 | 60 | 3.5 | 8.7 | 0.00 | 0.00 | 0.00 | 9 | 1015.6 |
| 20260507122043 | 56 | 50 | 4.3 | 10.4 | 0.00 | 0.00 | 0.00 | 16 | 1015.7 |
| 20260507121019 | 57 | 84 | 5.2 | 9.6 | 0.00 | 0.00 | 0.00 | 20 | 1015.7 |
| 20260507115949 | 57 | 78 | 3.5 | 8.7 | 0.00 | 0.00 | 0.00 | 28 | 1015.7 |
| 20260507115011 | 57 | 82 | 4.3 | 10.4 | 0.00 | 0.00 | 0.00 | 29 | 1015.6 |
| 20260507114023 | 57 | 70 | 4.3 | 10.4 | 0.00 | 0.00 | 0.00 | 29 | 1015.7 |
| 20260507112958 | 57 | 74 | 3.5 | 7.8 | 0.00 | 0.00 | 0.00 | 32 | 1015.7 |
| 20260507111955 | 57 | 78 | 3.5 | 8.7 | 0.00 | 0.00 | 0.00 | 36 | 1015.7 |
| 20260507105815 | 58 | 59 | 4.3 | 10.4 | 0.00 | 0.00 | 0.00 | 40 | 1015.7 |
| 20260507104816 | 59 | 15 | 5.2 | 10.4 | 0.00 | 0.00 | 0.00 | 43 | 1015.8 |
| 20260507103805 | 60 | 37 | 5.2 | 10.4 | 0.00 | 0.00 | 0.00 | 44 | 1015.8 |
| 20260507102817 | 59 | 11 | 4.3 | 9.6 | 0.00 | 0.00 | 0.00 | 45 | 1015.9 |
| 20260507101759 | 59 | 32 | 5.2 | 9.6 | 0.00 | 0.00 | 0.00 | 43 | 1015.9 |
| 20260507095637 | 58 | 58 | 3.5 | 9.6 | 0.00 | 0.00 | 0.00 | 37 | 1015.8 |
| 20260507094700 | 58 | 60 | 4.3 | 9.6 | 0.00 | 0.00 | 0.00 | 38 | 1015.8 |
| 20260507093648 | 58 | 34 | 4.3 | 8.7 | 0.00 | 0.00 | 0.00 | 39 | 1015.8 |
| 20260507091520 | 57 | 46 | 3.5 | 7.8 | 0.00 | 0.00 | 0.00 | 33 | 1015.8 |
| 20260507090508 | 56 | 25 | 2.6 | 7.8 | 0.00 | 0.00 | 0.00 | 27 | 1015.7 |
| 20260507085447 | 56 | 55 | 3.5 | 7.8 | 0.00 | 0.00 | 0.00 | 28 | 1015.6 |
| 20260507084423 | 56 | 42 | 3.5 | 7.8 | 0.00 | 0.00 | 0.00 | 23 | 1015.6 |
| 20260507082300 | 56 | 36 | 2.6 | 7.0 | 0.00 | 0.00 | 0.00 | 22 | 1015.6 |
| 20260507081241 | 55 | 65 | 2.6 | 7.0 | 0.00 | 0.00 | 0.00 | 14 | 1015.6 |
| 20260507080208 | 55 | 91 | 2.6 | 2.6 | 0.00 | 0.00 | 0.00 | 13 | 1015.4 |
| 20260507080008 | 55 | 93 | 2.6 | 7.8 | 0.00 | 0.00 | 0.00 | 13 | 1015.5 |
| 20260507074947 | 55 | 78 | 1.7 | 6.1 | 0.00 | 0.00 | 0.00 | 11 | 1015.4 |
| 20260507072804 | 54 | 62 | 2.6 | 7.0 | 0.00 | 0.00 | 0.00 | 1 | 1015.3 |
| 20260507071758 | 54 | 65 | 1.7 | 7.0 | 0.00 | 0.00 | 0.00 | 1 | 1015.3 |
| 20260507070804 | 53 | 63 | 1.7 | 5.2 | 0.00 | 0.00 | 0.00 | 1 | 1015.2 |
| 20260507065822 | 53 | 104 | 1.7 | 5.2 | 0.00 | 0.00 | 0.00 | 1 | 1015.2 |
| 20260507064840 | 53 | 57 | 0.9 | 5.2 | 0.00 | 0.00 | 0.00 | 1 | 1015.2 |
| 20260507063836 | 52 | 74 | 0.9 | 3.5 | 0.00 | 0.00 | 0.00 | 1 | 1015.1 |
| 20260507062845 | 52 | 70 | 0.0 | 0.0 | 0.00 | 0.00 | 0.00 | 1 | 1015.1 |
| 20260507061831 | 52 | 70 | 0.0 | 0.0 | 0.00 | 0.00 | 0.00 | 1 | 1015.0 |
| 20260507060836 | 51 | 70 | 0.0 | 0.0 | 0.00 | 0.00 | 0.00 | 1 | 1015.0 |
| 20260507054711 | 51 | 69 | 0.0 | 0.0 | 0.00 | 0.00 | 0.00 | 1 | 1014.8 |
| 20260507053647 | 50 | 69 | 0.0 | 0.0 | 0.00 | 0.00 | 0.00 | 1 | 1014.7 |
| 20260507052631 | 50 | 69 | 0.0 | 0.0 | 0.00 | 0.00 | 0.00 | 1 | 1014.7 |
| 20260507051636 | 50 | 69 | 0.0 | 0.0 | 0.00 | 0.00 | 0.00 | 1 | 1014.7 |
| 20260507050606 | 50 | 69 | 0.0 | 0.0 | 0.00 | 0.00 | 0.00 | 1 | 1014.7 |
| 20260507045543 | 50 | 69 | 0.0 | 0.0 | 0.00 | 0.00 | 0.00 | 1 | 1014.6 |
| 20260507044541 | 50 | 69 | 0.0 | 0.0 | 0.00 | 0.00 | 0.00 | 1 | 1014.5 |
| 20260507043529 | 50 | 69 | 0.0 | 0.0 | 0.00 | 0.00 | 0.00 | 1 | 1014.3 |
| 20260507041423 | 50 | 67 | 0.0 | 0.0 | 0.00 | 0.00 | 0.00 | 1 | 1014.3 |
| 20260507035212 | 50 | 66 | 0.0 | 0.0 | 0.00 | 0.00 | 0.00 | 1 | 1014.3 |
| 20260507034233 | 50 | 66 | 0.0 | 0.0 | 0.00 | 0.00 | 0.00 | 1 | 1014.2 |
| 20260507033257 | 50 | 66 | 0.0 | 0.0 | 0.00 | 0.00 | 0.00 | 1 | 1014.2 |
| 20260507032223 | 50 | 66 | 0.0 | 0.0 | 0.00 | 0.00 | 0.00 | 1 | 1014.2 |
| 20260507030122 | 50 | 66 | 0.0 | 0.0 | 0.00 | 0.00 | 0.00 | 1 | 1014.2 |
| 20260507025132 | 50 | 66 | 0.0 | 0.0 | 0.00 | 0.00 | 0.00 | 1 | 1014.1 |
| 20260507024153 | 50 | 66 | 0.0 | 0.0 | 0.00 | 0.00 | 0.00 | 1 | 1014.0 |
| 20260507023202 | 50 | 64 | 0.0 | 0.9 | 0.00 | 0.00 | 0.00 | 1 | 1014.0 |
| 20260507021014 | 51 | 64 | 0.0 | 0.0 | 0.00 | 0.00 | 0.00 | 1 | 1014.0 |
| 20260507015943 | 51 | 64 | 0.0 | 0.0 | 0.00 | 0.00 | 0.00 | 1 | 1014.0 |
| 20260507013745 | 51 | 64 | 0.9 | 3.5 | 0.00 | 0.00 | 0.00 | 1 | 1014.0 |
| 20260507012746 | 51 | 61 | 0.9 | 1.7 | 0.00 | 0.00 | 0.00 | 1 | 1014.0 |
| 20260507011738 | 51 | 59 | 0.9 | 2.6 | 0.00 | 0.00 | 0.00 | 1 | 1014.0 |
| 20260507005635 | 51 | 48 | 0.9 | 4.3 | 0.00 | 0.00 | 0.00 | 1 | 1014.0 |
| 20260507004635 | 51 | 40 | 1.7 | 6.1 | 0.00 | 0.00 | 0.00 | 1 | 1013.9 |
| 20260507002540 | 51 | 52 | 1.7 | 5.2 | 0.00 | 0.00 | 0.00 | 1 | 1013.8 |
| 20260507001524 | 51 | 65 | 1.7 | 4.3 | 0.00 | 0.00 | 0.00 | 1 | 1013.9 |
| 20260507000527 | 51 | 52 | 1.7 | 6.1 | 0.00 | 0.00 | 0.00 | 1 | 1013.9 |
| 20260506235549 | 51 | 36 | 1.7 | 6.1 | 0.00 | 0.00 | 0.00 | 1 | 1014.0 |
| 20260506234541 | 51 | 72 | 0.9 | 4.3 | 0.00 | 0.00 | 0.00 | 1 | 1014.0 |
| 20260506233539 | 51 | 61 | 0.9 | 3.5 | 0.00 | 0.00 | 0.00 | 1 | 1013.9 |
| 20260506232553 | 51 | 65 | 0.9 | 6.1 | 0.00 | 0.00 | 0.00 | 1 | 1013.9 |
| 20260506231555 | 51 | 73 | 1.7 | 6.1 | 0.00 | 0.00 | 0.00 | 1 | 1013.8 |
| 20260506230556 | 52 | 72 | 0.9 | 5.2 | 0.00 | 0.00 | 0.00 | 1 | 1013.9 |
| 20260506225614 | 51 | 77 | 0.9 | 5.2 | 0.00 | 0.00 | 0.00 | 1 | 1013.9 |
| 20260506224620 | 51 | 76 | 0.9 | 5.2 | 0.00 | 0.00 | 0.00 | 1 | 1013.8 |
| 20260506223551 | 51 | 50 | 1.7 | 3.5 | 0.00 | 0.00 | 0.00 | 1 | 1013.8 |
| 20260506222524 | 52 | 73 | 0.9 | 5.2 | 0.00 | 0.00 | 0.00 | 1 | 1013.7 |